SCP
0 0 0 0 0 0 0 0 0 0 0 0 0 0 0 0 0 0 0 0 0 0 0 0 0 0 0 0 0 0 0 0 0 0 0 0 0 0 0 0 0 0 0 0
0 0 0 0 0 0 0 0 0 0 0 0 0 0 0 0 0 0 0 0 0 0 0 0 0 0 0 0 0 0 0 0 0 0 0 0 0 0 0 0 0 0 0 0
0 0 0 0 0 0 0 0 0 0 0 0 0 0 0 0 0 0 0 0 0 0 0 0 0 0 0 0 0 0 0 0 0 0 0 0 0 0 0 0 0 0 0 0
0 0 0 0 0 0 0 0 0 0 0 0 0 0 0 0 0 0 0 0 0 0 0 0 0 0 0 0 0 0 0 0 0 0 0 0 0 0 0 0 0 0 0 0
0 0 0 0 0 0 0 0 0 0 0 0 0 0 0 0 0 0 0 0 0 0 0 0 0 0 0 0 0 0 0 0 0 0 0 0 0 0 0 0 0 0 0 0
0 0 0 0 0 0 0 0 0 0 0 0 0 0 0 0 0 1 1 1 1 1 1 1 0 0 0 0 0 0 0 0 0 0 0 0 0 0 0 0 0 0 0 0
0 0 0 0 0 0 0 0 0 0 0 0 0 0 0 0 0 1 1 1 1 1 1 1 1 1 0 0 0 0 0 0 0 0 0 0 0 0 0 0 0 0 0 0
0 0 0 0 0 0 0 0 0 0 0 0 0 0 0 0 0 1 1 1 1 1 1 1 1 1 0 0 0 0 0 0 0 0 0 0 0 0 0 0 0 0 0 0
0 0 0 0 0 0 0 0 0 0 0 0 0 0 0 0 0 0 1 1 1 1 1 1 1 1 0 0 0 0 0 0 0 0 0 0 0 0 0 0 0 0 0 0
0 0 0 0 0 0 0 0 0 0 0 0 0 0 0 0 0 0 0 1 1 1 1 1 1 0 0 0 0 0 0 0 0 0 0 0 0 0 0 0 0 0 0 0
0 0 0 0 0 0 0 0 0 0 0 0 0 0 0 0 0 0 0 1 1 1 1 1 0 0 0 0 0 0 0 0 0 0 0 0 0 0 0 0 0 0 0 0
0 0 0 0 0 0 0 0 0 0 0 0 0 0 0 0 0 0 0 0 1 1 1 1 0 0 0 0 0 0 0 0 0 0 0 0 0 0 0 0 0 0 0 0
0 0 0 0 0 0 0 0 0 0 0 0 0 0 0 0 0 0 0 0 0 1 1 1 0 0 0 0 0 0 0 0 0 0 0 0 0 0 0 0 0 0 0 0
0 0 0 0 0 0 0 0 0 0 0 0 0 0 0 0 0 0 0 0 0 0 1 1 0 0 0 0 0 0 0 0 0 0 0 0 0 0 0 0 0 0 0 0
0 0 0 0 0 0 0 0 0 0 0 0 0 0 0 0 0 0 0 0 0 0 1 1 0 0 0 0 0 0 0 0 0 0 0 0 0 0 0 0 0 0 0 0
0 0 0 0 0 0 0 0 0 0 0 0 0 0 0 0 0 0 0 0 0 0 1 1 0 0 0 0 0 0 0 0 0 0 0 0 0 0 0 0 0 0 0 0
0 0 0 0 0 0 0 0 0 0 0 0 0 0 0 0 0 0 0 0 0 0 0 0 0 0 0 0 0 0 0 0 0 0 0 0 0 0 0 0 0 0 0 0
0 0 0 0 0 0 0 0 0 0 0 0 0 0 0 0 0 0 0 0 0 0 0 0 0 0 0 0 0 0 0 0 0 0 0 0 0 0 0 0 0 0 0 0
0 0 0 0 0 0 0 0 0 0 0 0 0 0 0 0 0 0 0 0 0 0 0 0 0 0 0 0 0 0 0 0 0 0 0 0 0 0 0 0 0 0 0 0
0 0 0 0 0 0 0 0 0 0 0 0 0 0 0 0 0 0 0 0 0 0 0 0 0 0 0 0 0 0 0 0 0 0 0 0 0 0 0 0 0 0 0 0
0 0 0 0 0 0 0 0 0 0 0 0 0 0 0 0 0 0 0 0 0 0 0 0 0 0 0 0 0 0 0 0 0 0 0 0 0 0 0 0 0 0 0 0
0 0 0 0 0 0 0 0 0 0 0 0 0 0 0 0 0 0 0 0 0 0 0 0 0 0 0 0 0 0 0 0 0 0 0 0 0 0 0 0 0 0 0 0
0 0 0 0 0 0 0 0 0 0 -0 -0 -0 -0 0 0 0 0 0 0 0 0 0 0 0 0 0 0 0 0 0 0 0 0 0 0 0 0 0 0 0 0 0 0
0 0 0 0 0 0 0 0 0 0 -0 -0 -0 -0 -0 0 0 0 0 0 0 0 0 0 0 -0 -0 -0 -0 0 0 0 0 0 0 0 0 0 0 0 0 0 0 0
0 0 0 0 0 0 0 0 0 0 -0 -0 -0 -0 -0 0 0 0 0 0 0 0 0 0 0 -0 -0 -0 -0 0 0 0 0 0 0 0 0 0 0 0 0 0 0 0
0 0 0 0 0 0 0 0 0 0 -0 -0 0 0 0 0 0 0 0 0 0 0 0 0 0 -0 -0 -0 0 0 0 0 0 0 0 0 0 0 0 0 0 0 0 0
0 0 0 0 0 0 0 0 0 0 0 0 0 0 0 0 0 0 0 0 0 0 0 0 0 0 0 0 0 0 0 0 0 0 0 0 0 0 0 0 0 0 0 0
Wind_Speed
4 4 4 5 5 4 5 7 8 9 9 10 10 10 10 11 12 13 14 15 17 17 15 14 14 13 13 12 12 12 11 10 10 8 8 7 7 6 6 5 6 5 5 4
3 4 3 4 5 5 5 6 7 6 8 8 7 6 6 9 13 14 15 16 17 17 16 16 16 15 13 13 12 12 12 11 10 9 8 8 7 7 6 5 5 5 5 5
3 3 3 4 4 4 3 3 5 6 7 2 4 8 10 10 13 15 15 15 17 17 18 18 17 16 16 14 12 12 12 11 10 10 10 9 9 7 7 6 5 5 5 5
2 1 4 7 3 2 2 1 2 4 4 3 7 8 7 8 11 13 14 15 16 16 15 14 14 14 14 13 13 13 12 11 11 11 10 9 8 8 7 6 6 5 5 6
3 3 5 4 2 1 2 2 2 3 4 3 1 1 3 7 10 13 14 13 14 15 15 14 14 14 14 13 13 13 13 12 12 12 11 10 9 9 7 6 6 5 5 6
3 3 4 4 4 2 3 2 3 1 2 1 3 2 6 5 8 9 10 11 12 12 11 13 13 14 15 14 14 14 14 13 12 11 11 11 10 8 6 6 6 6 5 6
3 3 5 4 4 2 2 5 4 1 1 1 4 7 6 4 5 8 8 10 12 13 13 14 14 15 15 14 15 14 12 11 11 11 11 10 8 6 6 6 6 6 6 6
2 2 5 4 2 2 5 3 2 2 1 0 3 3 2 2 4 8 9 9 11 12 11 11 14 15 15 15 13 11 11 11 11 10 9 9 8 7 6 7 6 6 5 5
3 4 4 2 2 3 2 1 2 1 1 0 0 1 2 1 2 6 8 10 10 11 11 10 12 15 15 13 11 11 11 11 10 9 8 7 8 8 6 6 5 5 4 4
1 3 2 3 2 2 1 2 2 1 1 1 2 2 3 2 2 4 5 7 8 11 11 10 10 11 11 11 12 12 11 10 9 8 7 7 6 6 6 6 6 5 5 5
2 3 3 4 3 2 3 2 3 5 4 2 3 3 3 3 3 3 4 5 8 10 10 9 9 8 8 10 11 11 10 9 8 8 8 7 6 6 7 7 8 8 6 6
3 3 1 3 3 3 4 5 5 5 6 6 3 4 4 4 3 4 4 5 7 7 8 8 8 7 7 8 10 10 8 7 6 6 5 5 5 4 7 8 11 13 12 9
2 1 2 3 3 3 4 4 5 5 4 4 3 4 5 5 4 5 5 6 7 7 7 7 8 7 6 7 9 9 8 7 5 5 5 5 5 5 4 5 7 10 12 13
0 1 1 1 1 3 5 5 6 5 4 4 5 5 6 6 6 6 5 5 6 6 6 6 7 6 5 7 7 7 6 7 6 5 5 5 5 5 5 4 4 4 6 10
2 1 1 1 3 5 6 7 8 7 6 7 7 7 7 7 6 5 5 5 7 7 6 6 5 4 4 6 7 6 5 4 4 4 4 4 4 4 4 4 4 4 3 4
2 3 4 6 6 6 7 8 7 6 6 7 7 7 8 8 7 6 6 6 7 6 4 5 4 3 4 5 5 4 3 4 4 3 2 2 3 3 3 3 4 3 4 4
3 3 5 6 6 6 7 7 7 7 7 8 7 7 9 9 9 8 7 6 7 6 4 4 3 3 4 5 5 3 2 2 3 2 2 2 2 3 3 3 3 3 3 4
4 5 5 6 7 8 8 9 9 8 8 7 8 9 9 9 8 6 6 7 8 8 5 3 3 4 4 4 3 3 2 2 2 2 1 1 2 2 2 2 2 3 2 2
9 9 8 9 9 8 8 8 8 8 8 8 9 9 8 7 7 7 7 8 8 6 3 3 6 5 4 3 4 3 3 2 2 1 1 1 1 1 1 1 1 2 2 2
10 11 11 11 10 9 9 8 8 8 7 8 8 9 8 7 6 7 7 7 4 1 1 3 4 4 3 3 4 3 3 3 2 2 2 1 1 1 1 1 1 1 1 2
10 11 11 11 10 9 8 7 8 7 6 7 7 7 6 5 5 6 6 5 4 4 4 5 4 3 3 3 3 2 2 2 2 1 1 1 1 0 0 1 1 1 1 1
8 9 10 9 9 8 6 6 7 7 6 6 6 6 6 6 6 6 5 3 2 4 4 3 3 4 4 4 3 2 2 2 1 1 1 1 1 0 0 1 1 1 1 1
7 7 8 7 6 6 6 6 6 6 6 6 6 6 5 4 3 3 3 2 2 4 3 3 3 5 6 4 3 2 2 2 2 1 1 1 1 1 1 1 1 1 1 1
7 7 6 5 6 7 6 5 5 5 6 6 6 5 5 4 4 3 1 2 3 4 3 4 6 7 6 3 3 3 3 2 2 2 1 1 1 1 0 1 1 1 1 1
6 6 6 7 6 5 4 5 6 7 7 5 6 6 4 3 2 2 3 4 5 5 4 5 7 6 4 3 3 3 3 2 2 2 1 1 1 1 1 1 1 1 1 2
5 5 5 5 4 4 4 5 5 5 5 5 5 4 4 3 4 4 4 4 6 6 4 3 4 4 2 2 2 3 2 2 2 2 2 1 1 1 2 2 3 2 2 3
6 6 6 6 6 6 5 5 5 5 5 5 4 4 4 4 4 5 5 4 4 4 3 3 3 3 2 2 3 3 2 2 2 2 2 2 2 2 2 2 2 2 3 3
Wind_Direction
238 246 217 221 239 212 191 187 185 221 225 232 216 207 195 186 178 177 177 177 179 181 180 178 177 178 178 178 176 173 170 174 180 178 173 170 172 176 179 180 185 185 185 189
302 263 265 263 258 245 225 201 210 219 242 242 216 203 190 183 176 178 180 180 181 181 180 179 178 179 178 179 177 172 174 180 178 175 174 175 178 178 178 187 190 185 189 190
268 296 339 281 256 234 216 195 179 211 232 227 201 199 193 192 185 186 183 180 181 182 183 182 181 179 180 179 174 174 178 178 177 176 178 182 184 180 184 190 189 191 198 195
199 84 231 244 253 213 174 215 224 230 245 209 204 205 197 193 191 190 185 181 182 181 181 180 177 175 175 171 172 175 178 180 179 178 182 183 182 186 191 187 189 195 203 203
158 205 254 274 274 236 157 302 289 259 266 257 228 9 273 215 197 194 188 182 181 180 177 174 173 170 167 171 173 176 181 183 183 182 182 183 187 191 191 186 192 197 197 199
158 186 229 247 289 299 101 306 300 285 262 258 106 163 255 233 199 190 185 178 173 168 165 169 172 166 165 171 175 183 186 185 182 182 183 188 191 190 185 185 195 197 204 207
185 211 254 267 302 32 144 236 294 352 339 165 194 211 234 218 194 184 181 177 168 164 169 174 168 164 169 174 184 187 180 176 177 181 184 186 185 184 183 185 189 197 208 219
173 194 255 317 9 170 219 260 301 331 352 313 253 246 217 177 181 172 169 165 163 165 171 169 166 166 172 184 185 172 167 171 176 177 182 184 179 184 184 183 191 203 212 231
190 214 260 298 265 256 215 245 274 305 328 1 245 126 114 100 149 158 162 163 161 160 162 166 170 172 180 184 168 164 167 174 177 178 181 174 176 182 182 185 193 204 206 224
260 277 301 322 319 316 295 265 282 310 351 45 78 80 69 78 104 136 146 155 151 151 155 163 172 176 177 167 163 164 171 176 176 178 182 181 182 184 187 192 198 204 210 221
238 269 327 337 333 319 328 352 25 23 10 8 73 67 67 86 90 106 125 140 146 152 156 160 159 162 164 160 159 165 172 176 178 181 185 189 192 195 197 204 199 201 211 209
222 236 223 276 305 339 22 27 35 33 10 0 52 77 79 85 87 95 105 113 123 132 139 143 143 146 154 156 159 162 167 173 176 177 181 183 187 208 220 213 213 212 215 213
207 248 248 269 329 19 42 35 38 36 25 18 31 70 90 86 79 88 94 105 119 131 134 136 136 141 151 154 156 161 166 170 171 174 177 179 182 190 220 247 237 231 229 229
210 90 27 357 40 53 59 55 58 45 35 62 67 69 78 80 80 84 92 110 117 117 122 129 133 146 156 150 148 154 160 168 169 175 178 183 192 200 206 216 237 255 244 236
19 72 146 87 62 60 63 66 64 51 47 47 59 72 79 80 76 73 78 92 97 99 108 120 129 146 149 145 148 153 157 166 169 174 182 187 192 198 206 211 220 232 243 245
29 19 59 72 69 66 71 69 70 61 57 56 54 61 69 72 70 67 66 83 93 98 110 118 131 147 139 138 136 136 148 159 158 163 174 188 193 194 199 205 211 219 230 239
88 72 73 74 69 71 72 72 69 66 65 67 65 66 69 69 65 60 57 65 81 83 86 101 116 114 116 123 128 132 134 149 154 156 174 184 191 195 192 191 203 218 234 236
104 106 100 96 91 82 70 66 65 63 66 68 70 70 68 69 67 61 61 67 67 59 50 62 81 86 89 99 110 112 115 120 135 154 169 171 187 198 188 188 199 208 229 248
75 80 80 79 80 80 77 76 72 68 68 71 73 72 70 69 67 63 65 67 66 56 21 44 77 84 86 91 102 110 111 103 95 93 107 118 121 107 123 152 185 199 206 217
71 72 74 72 70 73 74 71 71 67 64 70 74 72 67 62 65 66 64 60 47 37 22 59 77 77 77 79 88 96 100 103 103 98 92 99 119 143 147 152 188 222 234 244
69 71 71 69 66 65 66 69 72 68 58 63 73 75 71 60 61 64 62 51 7 12 36 51 58 53 51 51 61 72 87 96 102 116 124 144 151 173 278 287 289 288 291 291
64 68 66 63 63 59 54 59 68 70 63 63 65 66 65 56 53 57 56 62 22 33 48 48 45 39 35 38 49 56 69 81 85 84 85 91 91 46 345 350 340 327 312 300
61 63 65 62 63 61 54 54 57 61 63 63 64 64 66 59 57 67 42 359 20 35 42 41 41 35 34 42 43 44 50 59 59 59 70 75 77 67 50 33 354 332 339 341
53 51 50 50 53 56 49 42 50 54 58 58 53 57 62 57 39 26 31 21 33 39 37 25 32 36 39 40 41 40 43 53 54 54 56 50 54 58 21 337 321 319 317 317
58 54 53 49 46 42 41 49 50 47 51 47 39 35 37 52 58 26 25 29 31 36 29 26 29 32 39 40 44 40 32 30 36 46 47 36 12 351 335 320 299 290 289 283
48 49 50 46 45 44 46 51 54 47 46 41 29 23 23 27 35 32 31 33 33 31 29 26 29 35 38 39 45 41 33 18 14 11 5 5 339 334 333 335 330 322 307 299
48 49 49 43 38 38 42 46 51 44 39 40 30 18 21 26 30 31 32 28 26 24 19 17 21 27 27 29 31 31 26 19 13 3 355 347 335 324 321 328 329 325 320 316